{"data":{"norad_id":57054,"epoch":"2026-05-24T23:36:38.183328Z","epoch_age_seconds":80485,"freshness":"FRESH","line1":"1 57054U 23088G   26144.98377527 -.00000078  00000+0  66754-5 0  9995","line2":"2 57054  43.0042  39.5292 0001298 251.4637 108.6074 15.27584291162003","mean_motion":15.27584291,"eccentricity":0.0001298,"inclination_deg":43.0042,"raan_deg":39.5292,"arg_perigee_deg":251.4637,"mean_anomaly_deg":108.6074,"bstar":6.6754e-6,"rev_number":16200,"period_min":94.266483917384,"perigee_km":482.14566698455,"apogee_km":483.92682755955,"semimajor_km":6861.1732472721,"source":"CELESTRAK","updated_at":"2026-05-25T13:38:18.209095Z"}}